This is the latest recevied weather packets stored in our database for station/object K1RFS. If no packets are shown the sender has not sent any weather packets the latest 10 day(s).
| Time | Temp. | Humidity | Pressure | Rain* | Wind** | Luminosity | Snow |
|---|---|---|---|---|---|---|---|
| 1777566245 | 11.67° C | 43% | 1004.4 hPa | 0 mm | - | 36 W/m² | - |
| 1777565942 | 11.67° C | 44% | 1004.6 hPa | 0 mm | - | 36 W/m² | - |
| 1777565637 | 11.67° C | 44% | 1004.6 hPa | 0 mm | - | 36 W/m² | - |
| 1777565334 | 11.67° C | 43% | 1004.7 hPa | 0 mm | - | 35 W/m² | - |
| 1777565030 | 11.11° C | 43% | 1004.5 hPa | 0 mm | - | 35 W/m² | - |
| 1777564726 | 11.11° C | 44% | 1004.5 hPa | 0 mm | - | 34 W/m² | - |
| 1777564426 | 11.11° C | 45% | 1004.6 hPa | 0 mm | - | 34 W/m² | - |
| 1777564123 | 11.11° C | 44% | 1004.5 hPa | 0 mm | - | 34 W/m² | - |
| 1777563818 | 11.11° C | 45% | 1004.6 hPa | 0 mm | - | 33 W/m² | - |
| 1777563515 | 11.11° C | 47% | 1004.5 hPa | 0 mm | - | 33 W/m² | - |
| 1777563214 | 10.56° C | 46% | 1004.4 hPa | 0 mm | - | 33 W/m² | - |
| 1777562911 | 10.56° C | 48% | 1004.6 hPa | 0 mm | - | 32 W/m² | - |
| 1777562607 | 10.56° C | 51% | 1004.6 hPa | 0 mm | - | 32 W/m² | - |
| 1777562306 | 10° C | 52% | 1004.6 hPa | 0 mm | - | 32 W/m² | - |
| 1777562003 | 10° C | 54% | 1004.6 hPa | 0 mm | - | 31 W/m² | - |
| 1777561700 | 10° C | 54% | 1004.7 hPa | 0 mm | - | 31 W/m² | - |
| 1777561395 | 9.44° C | 55% | 1004.7 hPa | 0 mm | - | 31 W/m² | - |
| 1777561091 | 9.44° C | 56% | 1004.7 hPa | 0 mm | - | 30 W/m² | - |
| 1777560787 | 9.44° C | 57% | 1004.9 hPa | 0 mm | - | 29 W/m² | - |
| 1777560484 | 9.44° C | 57% | 1004.6 hPa | 0 mm | - | 29 W/m² | - |
| 1777560182 | 8.89° C | 55% | 1004.8 hPa | 0 mm | - | 29 W/m² | - |
| 1777559879 | 8.89° C | 56% | 1004.7 hPa | 0 mm | - | 28 W/m² | - |
| 1777559579 | 8.89° C | 56% | 1004.7 hPa | 0 mm | - | 27 W/m² | - |
| 1777559277 | 8.33° C | 58% | 1004.8 hPa | 0 mm | - | 27 W/m² | - |
| 1777558972 | 8.33° C | 59% | 1004.8 hPa | 0 mm | - | 26 W/m² | - |
* Rain latest hour (hover to see other rain measurements)
** Current wind speed in m/s (hover to see current wind gust speed)